THORAD DELTA 1 DEB, 8161

Orbit data source: Space-Track

THORAD DELTA 1 DEB, 8161 is space debris in LEO originally from a launch on Fri, 15 Nov 1974 UTC launched from the Air Force Western Test Range (AFWTR). Debris objects in space refer to the collection of defunct objects orbiting the Earth. Examples of debris include non-operational satellites, rocket bodies, and fragments generated from explosions, collisions, or faulty payload assembly.

Loading next visibility...
Identifier
8161, 1974-089AB
Orbit
LEO
Country
Flag of USUS
Related business
Manufacturer
Unknown
Mission
Spacecraft
Bus & Motor
Unknown
Mass
Unknown
Launch date (UTC)
1974-11-15 (51 years ago)
Launch vehicle
Unknown
Launch site
Air Force Western Test Range (AFWTR)
Object type
Payload
Rocket body
Debris
Shape & HBR
Unknown
Radar Cross Section
Small (<0.1 m²)

Expand to show TLE details & history
Last TLE update: 1 day ago

TLE from 1 day ago
0 THORAD DELTA 1 DEB
1 08161U 74089AB  25260.14876998 -.00000006  00000-0  32801-3 0  9995
2 08161 101.2327 328.4566 0369056 279.9211 104.1445 11.99400762554954
Epoch: 2025-09-17T03:34Z
TLE epoch observation values (Epoch: 2025-09-17T03:34:13.726Z)
Latitude
27.56941°
Longitude
-87.35287°
Altitude
1,769.49 km
Speed
6.962 km/s
True Right ascension
21h 30m 07s
True Declination
27° 26' 46"
Sunlit
Object was in full shadow at epoch
Visualization orbit readout
Latitude
Unknown
Longitude
Unknown
Altitude
Unknown
Speed
Unknown
Apparent Right ascension
Unknown
Apparent Declination
Unknown
Sunlit
N/A
Visualization observer readout
Local Sidereal Time
23:31:51
Azimuth
Unknown
Elevation
Unknown
Doppler factor
Unknown
Orbital elements
Apogee altitude
1,978.556 km
Perigee altitude
1,383.692 km
Semi-major axis
8,059.261 km
Eccentricity
0.03691
Inclination
101.2327°
RAAN
328.4566°
Arg. of periapsis
279.9211°
True anomaly
108.19625°
Mean anomaly
104.1445°
Eccentric anomaly
106.17533°
Mean motion
2.99986 °/min
Orbital period
120.01 mins
BSTAR
0.00032801
Loading maneuver chart data...
Computing Atmospheric mass density...
Loading historical data...
Loading historical data...
Loading historical data...
Loading historical data...
Loading historical data...
Loading historical data...
Loading historical data...

Documentation

Showing up to 5 results
|